Location: Shenandoah County Park
(38.9356°N, 78.4524°W)
Time: 15:33:55
(UTC-05:00)

Vanguard 2 Rocket - Pass Details

Date: 08 December 2023
Orbit: 555 x 3309 km, 32.9° (Epoch: 03 March)

Event Time Altitude Azimuth Distance (km) Brightness Sun altitude
Rises 13:38:33 0° 237° (WSW) 5,581 11.8 24.6°
Reaches altitude 10° 13:41:45 10° 234° (SW) 4,886 11.8 24.3°
Maximum altitude 13:56:48 61° 159° (SSE) 3,348 10.4 23.1°
Drops below altitude 10° 14:16:32 10° 86° (E) 6,213 10.9 21.1°
Sets 14:21:14 0° 83° (E) 7,114 11.1 20.6°
